Theta_e
304 298 292 295 298 296 295 295 294 297 301 301 299 299 301 305 306 305 306 303 303 301 307 313 321 323 321 324 325 324 323 324 323 323 322 322 321 322 323 325 325 325 325 323
298 292 298 297 297 297 296 294 293 296 301 301 298 297 301 303 305 306 307 307 305 304 302 304 317 322 323 321 324 325 325 325 324 323 323 323 323 323 324 325 325 325 324 324
294 295 300 299 296 294 294 294 294 295 298 300 298 295 297 301 304 306 308 309 310 307 307 307 303 317 322 323 321 324 325 325 325 325 325 323 323 321 322 323 323 323 324 324
295 300 297 295 294 296 291 296 295 294 293 288 296 285 292 296 299 302 305 307 308 309 311 311 307 307 317 322 325 324 326 325 325 326 324 323 322 321 323 324 325 324 324 324
291 294 294 293 296 298 294 299 296 295 292 291 291 288 290 296 296 299 302 306 308 310 310 311 311 308 312 317 321 324 324 325 325 325 326 324 323 324 325 325 324 325 324 324
291 297 298 296 298 299 300 297 296 295 293 285 289 289 289 292 296 298 302 305 306 308 310 310 311 309 307 311 318 322 323 323 325 324 325 324 323 324 323 323 323 324 324 323
292 292 297 299 295 298 297 293 284 282 283 282 289 288 291 295 298 298 300 303 304 306 308 309 308 306 307 304 314 318 321 321 323 323 324 325 324 324 324 323 323 323 322 322
286 284 291 296 294 291 294 293 285 279 278 280 286 284 288 297 300 302 301 301 302 300 301 302 304 307 308 305 308 316 318 320 321 322 323 324 325 325 324 324 324 323 323 323
283 283 293 296 296 295 290 289 294 287 279 279 283 286 291 294 295 296 297 298 298 300 303 301 302 301 303 303 303 311 316 318 320 321 322 323 324 324 323 324 324 323 324 323
292 285 291 293 297 297 293 295 287 287 280 277 281 282 286 291 294 296 296 296 297 297 297 298 300 300 301 301 303 308 313 316 318 320 321 322 322 323 324 323 322 322 323 322
294 289 288 293 291 291 292 290 291 290 286 281 275 281 288 292 293 294 293 293 293 292 293 294 296 298 297 297 299 305 310 313 316 318 320 320 321 322 323 322 322 321 322 321
293 287 284 287 292 296 295 291 291 286 281 284 280 284 290 290 292 291 292 292 292 291 291 291 292 293 293 295 296 302 308 312 315 317 318 319 320 321 321 321 321 321 321 320
294 286 281 284 288 292 291 293 293 292 288 282 280 284 290 291 290 290 289 291 292 291 290 291 291 292 292 293 294 297 303 308 311 314 317 317 317 318 319 320 321 320 320 320
297 287 285 281 284 289 288 290 293 291 285 285 285 287 292 294 295 296 298 295 292 292 291 291 291 292 293 293 293 294 297 304 306 309 313 313 316 317 319 320 320 320 321 321
291 280 287 287 285 288 287 290 291 290 291 286 288 288 293 296 295 297 298 295 293 293 295 297 291 291 292 293 293 294 294 297 303 305 308 310 309 309 311 312 314 317 318 319
292 285 286 283 287 288 285 288 289 291 290 291 291 291 298 299 300 297 299 300 299 294 294 296 292 291 290 291 293 293 294 294 296 300 302 302 302 301 302 303 304 305 306 309
288 285 283 278 283 285 279 286 288 288 292 291 287 292 297 295 296 297 298 299 300 301 299 294 293 291 290 292 293 293 295 295 295 295 295 295 295 295 295 295 295 294 297 301
286 285 283 276 275 270 281 286 290 289 290 292 293 295 296 297 298 299 300 298 299 300 296 295 294 292 292 292 293 293 294 295 295 295 294 294 294 293 293 293 294 294 295 296
288 283 279 274 273 275 282 283 286 285 286 292 291 294 296 297 294 297 301 301 301 301 302 299 296 293 291 292 292 293 293 294 293 293 293 292 292 290 291 290 290 287 288 288
285 284 276 276 267 264 277 284 287 289 281 287 290 292 292 292 288 293 299 299 299 299 299 295 294 290 289 289 289 291 290 291 292 292 291 290 287 288 289 289 288 286 287 287
277 280 274 272 264 272 281 283 288 277 278 283 286 286 285 286 289 290 291 293 296 294 294 292 290 290 288 287 288 288 288 289 287 286 286 285 288 288 290 289 287 287 287 287
275 272 269 269 268 269 282 284 283 281 283 283 282 284 282 284 286 287 287 288 289 290 288 288 287 285 284 285 286 287 287 285 286 286 286 286 286 286 287 288 286 287 288 288
273 277 273 277 277 282 283 283 280 280 281 281 280 281 280 282 283 283 284 285 284 283 283 282 283 281 281 282 283 284 283 284 284 285 286 286 286 286 286 287 287 287 287 288
280 282 279 280 282 283 284 279 279 279 279 280 280 279 279 279 280 281 282 282 280 280 279 279 280 279 279 280 281 282 283 283 285 285 285 286 286 286 286 286 286 287 287 287
280 283 279 279 281 282 280 277 275 277 278 278 278 279 278 278 279 279 279 279 279 278 277 277 277 277 277 278 278 279 281 284 285 285 284 285 286 286 285 285 286 286 285 287
279 280 280 278 276 278 278 274 274 273 274 275 275 276 278 278 278 277 278 278 277 276 276 276 275 275 275 275 276 276 278 283 284 283 283 285 285 285 285 285 285 288 289 289
Wind_Speed
5 10 15 15 13 7 4 6 11 3 6 6 11 13 13 16 11 14 15 14 15 15 16 10 13 14 13 14 15 17 16 17 12 11 11 11 12 11 10 9 13 13 12 13
5 17 7 7 10 8 11 14 15 5 4 6 7 18 12 14 17 15 19 18 17 17 13 11 13 13 16 18 19 17 19 17 16 12 11 8 10 10 10 9 10 13 13 13
13 3 12 9 10 14 14 16 9 6 2 4 7 22 16 15 22 19 21 22 19 20 22 16 14 17 18 18 20 21 20 20 18 17 10 7 4 3 8 10 10 11 14 13
10 8 7 17 18 14 19 14 18 15 6 11 6 19 6 7 14 12 17 19 21 23 23 19 18 19 20 21 19 19 20 20 18 19 15 19 14 13 11 11 10 10 14 14
6 10 14 12 10 12 6 5 11 12 12 10 14 10 6 11 16 16 14 20 20 22 22 23 22 19 18 18 18 18 19 19 19 19 19 16 16 12 9 9 12 13 11 15
9 1 6 7 11 12 3 5 9 9 7 12 25 14 20 14 17 13 12 18 16 18 21 21 19 14 14 13 16 16 18 20 19 20 22 20 20 17 12 13 12 11 12 11
9 8 1 5 3 7 14 7 4 5 6 10 3 10 23 9 11 9 14 15 13 12 15 15 16 14 16 14 18 17 20 21 22 22 22 23 22 21 20 16 13 13 12 11
7 8 21 8 12 5 7 8 5 4 4 3 2 13 9 9 14 15 9 17 13 7 8 9 12 13 15 15 17 18 19 20 20 22 23 21 22 14 14 15 13 13 12 13
7 7 3 6 6 12 7 12 10 6 3 3 6 10 7 10 14 8 14 12 14 8 13 12 11 12 11 10 15 19 19 20 19 22 19 19 18 18 16 18 16 12 12 10
3 5 5 8 5 7 5 7 5 7 8 7 6 7 9 7 13 10 10 7 9 9 10 8 8 11 11 11 12 13 17 19 19 18 16 15 18 19 17 14 16 16 12 12
6 3 2 12 15 18 8 5 5 3 3 5 3 8 9 14 9 8 8 6 8 10 11 8 8 10 8 6 7 10 11 13 14 15 15 15 14 16 15 14 14 14 13 13
12 2 3 10 1 7 13 9 9 4 4 4 2 13 2 8 8 4 7 8 6 8 8 7 8 8 8 6 5 8 8 10 13 12 14 14 13 13 14 15 13 12 14 11
12 5 3 2 4 3 8 14 15 13 2 10 3 12 4 1 5 8 7 7 9 9 8 8 6 5 7 5 5 7 7 10 7 10 13 12 13 13 14 14 14 12 13 13
14 5 4 6 2 3 9 12 17 13 6 15 17 29 19 17 14 12 16 8 8 8 9 6 7 8 6 6 6 6 6 6 7 8 11 12 13 14 15 14 13 12 12 12
5 6 7 6 4 4 1 10 14 14 21 11 29 20 24 18 9 13 12 9 8 8 9 13 7 6 6 7 7 5 6 6 6 8 10 10 7 7 7 7 8 10 10 11
3 3 3 4 4 9 7 11 11 22 21 20 25 30 32 23 19 14 18 21 17 10 9 11 10 8 8 7 6 5 5 4 5 6 7 6 6 6 7 6 6 6 6 6
8 6 3 2 3 2 7 19 22 16 19 20 19 36 32 12 14 15 15 16 19 17 13 12 10 8 7 6 6 6 6 4 5 5 5 6 6 7 7 7 7 6 7 5
7 6 3 3 2 3 6 2 10 18 21 21 23 30 26 16 14 18 14 9 18 20 13 11 8 5 7 3 4 2 4 5 5 5 6 6 6 6 6 6 6 5 5 6
3 5 3 5 4 7 10 5 8 9 14 17 23 26 28 15 6 24 15 16 22 23 19 12 8 6 5 5 5 6 5 5 5 6 6 6 6 6 6 5 5 3 3 2
2 3 6 3 5 9 7 6 4 5 7 5 9 17 12 7 7 15 12 9 12 13 13 9 8 4 6 4 3 5 5 4 6 4 3 2 3 5 5 5 5 3 3 3
3 1 7 4 4 10 8 7 3 3 4 4 8 8 8 5 5 18 19 18 15 8 8 7 5 6 3 3 5 6 6 6 3 4 4 3 3 4 5 6 3 4 5 4
10 8 5 3 2 12 6 3 8 2 5 5 3 5 10 13 15 12 17 16 17 16 10 9 4 3 5 5 2 4 7 5 5 4 4 3 2 2 3 5 3 4 5 5
4 8 8 11 9 5 2 2 4 2 2 5 7 7 9 12 10 16 17 16 13 12 8 7 5 5 7 8 7 3 3 3 5 5 5 3 4 3 4 5 5 3 4 4
5 5 3 3 6 9 5 4 4 2 1 4 5 9 8 10 13 15 14 12 9 9 11 8 6 6 6 7 7 5 4 3 2 5 6 5 5 5 5 4 3 3 3 3
5 8 6 5 3 4 3 6 7 6 4 7 8 8 9 10 13 12 12 12 10 8 9 8 7 5 5 5 4 4 4 1 1 1 3 5 5 7 8 7 4 3 1 2
5 7 6 6 3 1 4 6 9 8 10 10 12 14 13 10 14 11 11 8 8 7 6 6 7 6 6 6 5 6 5 3 3 1 2 4 6 6 7 9 9 18 14 15
Wind_Direction
207 200 216 213 218 247 283 237 238 218 221 214 239 250 244 265 265 256 254 249 251 235 239 216 211 205 196 199 197 196 191 197 185 189 192 203 210 211 211 210 209 205 206 202
187 231 212 200 215 231 228 249 262 263 210 202 279 267 245 260 257 247 260 256 248 250 235 217 208 196 202 202 205 202 203 194 193 194 197 203 196 214 212 208 209 209 206 203
210 158 196 212 207 218 236 240 250 262 322 250 294 280 265 248 251 249 245 247 249 237 244 229 206 201 204 204 205 205 201 198 197 197 187 188 163 192 199 207 209 210 206 204
237 224 207 211 221 198 234 221 241 258 272 264 136 284 250 272 270 235 240 244 244 240 242 236 216 206 204 207 209 209 203 199 199 191 190 195 204 207 209 208 209 205 204 204
207 169 196 213 213 198 236 160 222 228 238 264 241 267 299 216 250 260 238 248 239 239 240 242 236 219 203 202 205 203 203 200 197 193 199 198 207 214 204 201 200 201 204 207
215 287 196 222 201 214 107 234 272 264 261 226 242 220 267 238 244 255 253 251 250 239 236 237 238 226 219 206 200 203 200 203 197 196 201 202 206 208 202 202 202 206 213 209
209 207 180 168 166 192 191 194 238 231 202 250 209 207 246 299 284 232 248 261 250 248 243 240 230 217 223 196 195 197 197 204 199 198 199 205 207 206 209 202 201 198 206 213
197 194 214 180 201 165 200 205 218 207 213 286 34 229 260 240 252 260 268 258 277 259 246 243 247 235 227 211 202 199 199 207 199 200 204 206 209 207 210 205 204 210 208 211
182 242 74 199 159 164 179 220 220 273 159 243 216 284 270 245 271 284 252 257 268 274 261 241 240 232 231 226 210 202 201 206 201 204 203 205 207 204 204 206 209 209 207 208
187 280 182 183 129 212 183 134 162 199 245 241 251 255 238 299 278 280 297 297 300 296 291 286 269 254 238 226 224 207 208 206 204 201 201 205 204 202 205 202 205 208 206 195
177 249 197 141 199 189 167 189 190 183 188 222 289 252 207 224 247 245 285 308 297 298 303 319 288 274 254 220 216 220 211 207 201 198 198 198 203 205 203 204 204 202 198 193
171 146 216 202 13 199 211 186 206 234 202 226 206 263 355 239 232 264 291 304 305 291 305 310 305 305 279 254 238 226 218 202 205 194 191 196 196 198 200 206 202 196 201 194
162 214 208 153 306 332 210 211 213 221 302 230 243 266 344 232 308 287 278 294 306 304 326 321 313 283 271 252 253 236 211 215 201 186 188 190 193 193 202 206 202 195 198 199
164 146 211 197 163 137 213 206 219 215 223 252 243 264 258 270 296 301 293 273 288 308 307 284 295 293 290 266 247 251 244 208 187 184 190 188 189 194 204 207 205 202 199 201
164 174 191 200 168 100 334 224 218 221 237 231 258 259 268 276 271 279 291 307 290 297 312 309 283 271 259 259 247 232 234 214 186 193 193 198 175 163 164 173 183 191 192 199
165 173 154 207 255 210 223 233 251 231 239 251 262 274 261 272 281 283 283 284 280 273 274 286 285 287 277 264 260 254 250 225 184 195 200 177 172 173 181 177 186 188 188 192
158 162 137 230 194 151 277 235 231 241 242 243 247 253 272 285 282 263 263 268 281 278 278 270 282 292 280 242 219 224 223 185 190 190 189 181 178 188 192 183 178 195 203 204
132 140 141 169 61 246 241 54 217 216 233 227 245 260 269 266 269 283 270 277 277 282 259 251 256 270 269 237 163 173 176 181 191 184 182 177 179 185 170 163 172 169 166 188
134 123 134 155 195 300 293 195 166 176 246 232 244 254 260 281 266 278 282 257 259 265 268 255 234 238 206 213 165 160 161 169 180 199 193 187 178 171 168 169 149 103 108 102
53 91 120 164 173 222 238 294 169 111 276 4 295 261 287 305 272 275 317 299 273 263 260 250 247 207 211 169 155 160 170 175 212 204 202 175 142 154 155 137 130 116 106 121
135 186 196 192 230 283 249 250 278 142 242 23 10 10 356 329 334 306 324 324 312 285 284 272 230 214 178 148 157 184 167 183 116 78 68 66 134 144 153 143 131 133 127 135
166 157 187 147 190 268 223 19 202 77 320 341 5 355 320 304 305 308 314 325 331 332 342 347 328 48 35 20 324 217 171 130 125 125 120 132 98 104 126 137 108 115 134 138
213 181 181 186 210 214 95 116 109 100 270 332 322 339 319 315 327 322 318 327 342 345 345 351 8 46 17 14 10 19 43 128 133 136 135 124 115 119 128 130 124 114 139 145
239 177 203 115 212 224 168 115 102 136 331 317 304 310 317 315 323 319 323 328 348 356 350 343 10 32 28 13 34 47 11 341 307 135 141 138 133 117 95 82 90 130 146 141
194 143 176 266 286 288 120 72 22 11 349 347 336 320 314 322 321 321 319 324 336 354 0 356 357 23 10 358 23 12 352 321 318 129 145 130 117 110 98 80 77 89 46 146
189 184 185 221 58 345 101 21 23 10 357 350 340 333 329 321 318 320 311 319 327 342 19 13 357 4 360 349 354 352 351 325 144 167 144 123 118 104 103 105 89 59 70 82